Location: Ferintosh
(52.7647°N, 112.9692°W)
Time: 19:57:42
(UTC+00:00)

Explorer 7 - Pass Details

Date: 23 May 2024
Orbit: 466 x 622 km, 50.3° (Epoch: 16 June)

Event Time Altitude Azimuth Distance (km) Brightness Sun altitude
Rises 06:12:07 0° 216° (SW) 2,525 - -14.7°
Reaches altitude 10° 06:14:32 10° 202° (SSW) 1,669 - -14.8°
Maximum altitude 06:17:33 23° 148° (SSE) 1,097 - -14.9°
Exits shadow 06:18:57 19° 117° (ESE) 1,255 8.2 -15.0°
Drops below altitude 10° 06:20:42 10° 95° (E) 1,740 9.2 -15.1°
Sets 06:23:16 0° 81° (E) 2,663 10.2 -15.2°
